Location: Allonne
(49.4086°N, 2.1143°E)
Time: 14:55:40
(UTC+00:00)

DMSP B5D2-2 - Pass Details

Date: 06 August 2024
Orbit: 787 x 802 km, 98.3° (Epoch: 09 September)

Event Time Altitude Azimuth Distance (km) Brightness Sun altitude
Rises 01:39:43 0° 111° (ESE) 3,283 7.3 -20.2°
Reaches altitude 10° 01:42:54 10° 90° (E) 2,356 6.9 -20.0°
Maximum altitude 01:45:55 16° 54° (NE) 1,981 7.0 -19.8°
Drops below altitude 10° 01:48:56 10° 19° (NNE) 2,361 7.7 -19.5°
Sets 01:52:08 0° 358° (N) 3,295 8.3 -19.3°
